星链-32895 (STARLINK-32895)

导读

STARLINK-32895是美国SpaceX公司星链(Starlink)星座中的一颗低轨互联网通信卫星,于2025年2月23日发射入轨。作为星链星座组网的重要组成部分,它运行在近地轨道,配备相控阵天线与激光通信终端,可与星座其他卫星协同工作,为全球尤其是偏远地区提供高速、低延迟的宽带互联网接入服务,助力星链实现全球无缝网络覆盖的目标。

基本信息
目录编号:
63081
目录名称:
STARLINK-32895
国际标识:
2025-037E
轨道中心:
EARTH
卫星名称:
星链-32895
卫星全名:
星链-32895 (STARLINK-32895)
卫星状态:
在轨 (已飞行476 天)
发射日期:
2025-02-23 UTC
国别 :
美国 (US)
星等 :
--
轨道信息
数据来源 国际轨道数据 AOE轨道数据
星历时间 2026-06-14T04:40:38+0800
11小时前
查看轨道信息
2026-06-14T04:00:00+0800
11小时前
查看轨道信息
半长轴 6950.167km 6950.164km
偏心率 0.0003729 0.0003699
轨道倾角 70.001° 70.001°
近地点辐角 258.159° 261.173°
升交点赤经 112.134° 112.205°
平近点角 101.915° 306.719°
近地点 569.438km 569.456km
远地点 574.622km 574.598km
周期 96.106分钟 96.106分钟
每日圈数 14.983386 14.983396
详细信息
固有亮度:
5
最大亮度:
2.5
卫星平台:
Starlink V1.0
覆盖范围:
全球
运营商:
太空探索技术公司
运营商所在国:
美国
制造商(研发单位):
太空探索技术公司
制造商所在国:
美国
使用方式:
暂无
卫星简介
Starlink 计划是 SpaceX 推出的全球卫星互联网项目,通过发射低轨道卫星,为全球尤其是偏远地区提供高速、低延迟的互联网服务。自 2019 年起,Starlink 已部署数千颗卫星,旨在缩小全球数字鸿沟,推动互联网普及。该项目还为军事、航空等行业提供通信支持,带来广泛经济效益。
2D轨道图
3D轨道图
轨道高度分析图
轨道倾角分析图
轨道综合分析图
查看轨道综合分析图